Location: Flensburg
(54.6357°N, 9.5142°E)
Time: 17:32:18
(UTC+01:00)

ISS - Pass Details

Date: 12 November 2017
Orbit: 402 x 407 km, 51.6° (Epoch: 22 November)

Event Time Altitude Azimuth Distance (km) Brightness Sun altitude
Exits shadow 05:52:31 29° 225° (SW) 765 -2.8 -16.3°
Maximum altitude 05:53:10 32° 199° (SSW) 711 -2.7 -16.2°
Drops below altitude 10° 05:56:08 10° 134° (SE) 1,454 -0.2 -15.8°
Sets 05:58:19 0° 124° (SE) 2,312 1.2 -15.5°
